Regional Weather Roundup
Issued by NWS

Home | Current Version | Previous Version | Graphics & Text | Print | Product List | Glossary On
Versions: 1 2 3 4 5 6 7 8 9 10 11 12 13 14 15 16 17 18 19 20 21 22 23 24 25 26 27 28 29 30 31 32 33 34 35 36 37 38 39 40 41 42 43 44 45 46 47 48 49 50
000
ASUS43 KLMK 020910
RWRKY
KENTUCKY REGIONAL WEATHER ROUNDUP
NATIONAL WEATHER SERVICE LOUISVILLE KY
400 AM EST FRI DEC 02 2016

NOTE "FAIR" INDICATES FEW OR NO CLOUDS BELOW 12,000 FEET
WITH NO SIGNIFICANT WEATHER AND/OR OBSTRUCTIONS TO VISIBILITY.

KYZ001>023-026-027-061>063-070>075-021000-
WESTERN AND SOUTH CENTRAL KENTUCKY

CITY           SKY/WX    TMP DP  RH WIND       PRES   REMARKS
PADUCAH        PTCLDY    29  26  89 CALM      30.17R
HENDERSON      CLEAR     27  21  80 CALM      30.18R
OWENSBORO      CLEAR     28  27  96 CALM      30.18R
HOPKINSVILLE   PTCLDY    32  28  86 CALM      30.17R
BOWLING GREEN  CLEAR     30  27  88 CALM      30.17S
GLASGOW        CLEAR     29  29 100 CALM      30.16S
$$

KYZ024-025-028>034-038-045-046-053-021000-
NORTH CENTRAL KENTUCKY

CITY           SKY/WX    TMP DP  RH WIND       PRES   REMARKS
LOUISVILLE/SDF PTCLDY    35  28  75 SW6       30.15R WCI  30
LOUISVILLE/LOU CLEAR     32  27  81 CALM      30.16R
FORT KNOX      CLEAR     28  26  92 CALM      30.14R
$$

KYZ035>037-039>044-047>052-055>060-089>105-021000-
NORTHEAST KENTUCKY

CITY           SKY/WX    TMP DP  RH WIND       PRES   REMARKS
LEXINGTON      CLEAR     28  24  85 SW6       30.13R WCI  22
COVINGTON      CLOUDY    36  30  79 W10       30.09S WCI  28
FRANKFORT      CLEAR     29  25  85 SW5       30.13R WCI  24
$$

KYZ054-064>069-076>088-106>120-021000-
SOUTHEAST KENTUCKY

CITY           SKY/WX    TMP DP  RH WIND       PRES   REMARKS
JACKSON        CLEAR     33  26  75 SW5       30.11R WCI  29
LONDON         CLEAR     28  26  92 CALM      30.14R
SOMERSET       CLEAR     28  28 100 CALM      30.16S
MIDDLESBORO    CLEAR     28  28  98 CALM      30.16R
MONTICELLO     SUNNY     22  19  89 NE8       30.18S WCI  12
$$





USA.gov is the U.S. government's official web portal to all federal, state and local government web resources and services.